| time (UTC) | temp C | wind direction | speed KPH | gust KPH | rain 1hr cm | rain 24hr cm | rain mn cm | humidity % | barometer mb |
| 20260504211513 | 17 | 38 | 0.0 | 4.8 | 0.00 | 0.03 | 0.03 | 45 | 1005.2 |
| 20260504210016 | 17 | 347 | 3.2 | 11.3 | 0.00 | 0.03 | 0.03 | 46 | 1005.3 |
| 20260504204509 | 17 | 37 | 3.2 | 11.3 | 0.00 | 0.03 | 0.03 | 46 | 1005.2 |
| 20260504203009 | 17 | 17 | 9.7 | 20.9 | 0.00 | 0.03 | 0.03 | 46 | 1005.1 |
| 20260504201506 | 17 | 328 | 6.4 | 16.1 | 0.00 | 0.03 | 0.03 | 50 | 1005.1 |
| 20260504200006 | 16 | 34 | 3.2 | 16.1 | 0.00 | 0.03 | 0.03 | 55 | 1005.2 |
| 20260504194600 | 16 | 22 | 6.4 | 27.4 | 0.00 | 0.03 | 0.03 | 50 | 1005.4 |
| 20260504193058 | 15 | 31 | 12.9 | 20.9 | 0.00 | 0.03 | 0.03 | 52 | 1005.6 |
| 20260504191605 | 15 | 40 | 8.0 | 16.1 | 0.00 | 0.03 | 0.03 | 57 | 1005.8 |
| 20260504190107 | 13 | 49 | 4.8 | 17.7 | 0.00 | 0.03 | 0.03 | 60 | 1005.9 |
| 20260504184552 | 13 | 43 | 1.6 | 8.0 | 0.00 | 0.03 | 0.03 | 70 | 1006.0 |
| 20260504183056 | 13 | 311 | 6.4 | 14.5 | 0.00 | 0.03 | 0.03 | 68 | 1006.1 |
| 20260504181555 | 12 | 295 | 1.6 | 6.4 | 0.00 | 0.03 | 0.03 | 74 | 1006.3 |
| 20260504180057 | 12 | 307 | 1.6 | 9.7 | 0.00 | 0.03 | 0.03 | 76 | 1006.4 |
| 20260504174550 | 12 | 16 | 3.2 | 12.9 | 0.03 | 0.03 | 0.03 | 72 | 1006.3 |
| 20260504173049 | 11 | 20 | 1.6 | 9.7 | 0.03 | 0.03 | 0.03 | 78 | 1006.5 |
| 20260504171547 | 10 | 89 | 1.6 | 6.4 | 0.03 | 0.03 | 0.03 | 80 | 1006.7 |
| 20260504081546 | -1 | 155 | 0.0 | 0.0 | 0.00 | 0.00 | 0.00 | 88 | 1007.8 |
| 20260504050021 | 1 | 153 | 0.0 | 0.0 | 0.00 | 0.00 | 0.00 | 81 | 1007.6 |
| 20260504044517 | 1 | 153 | 0.0 | 0.0 | 0.00 | 0.00 | 0.00 | 78 | 1007.6 |
| 20260504043015 | 2 | 153 | 0.0 | 0.0 | 0.00 | 0.00 | 0.00 | 76 | 1007.6 |
| 20260504041511 | 2 | 152 | 0.0 | 0.0 | 0.00 | 0.00 | 0.00 | 74 | 1007.5 |
| 20260504040007 | 3 | 160 | 0.0 | 0.0 | 0.00 | 0.00 | 0.00 | 70 | 1007.3 |
| 20260504034505 | 5 | 194 | 0.0 | 8.0 | 0.00 | 0.00 | 0.00 | 64 | 1007.3 |
| 20260504033008 | 5 | 321 | 3.2 | 8.0 | 0.00 | 0.00 | 0.00 | 68 | 1007.3 |
| 20260504031506 | 3 | 72 | 0.0 | 6.4 | 0.00 | 0.00 | 0.00 | 74 | 1007.1 |
| 20260504030006 | 3 | 206 | 0.0 | 1.6 | 0.00 | 0.00 | 0.00 | 74 | 1007.2 |
| 20260504024503 | 2 | 180 | 0.0 | 0.0 | 0.00 | 0.00 | 0.00 | 78 | 1007.3 |
| 20260504023003 | 2 | 174 | 0.0 | 0.0 | 0.00 | 0.00 | 0.00 | 78 | 1007.5 |
| 20260504021600 | 2 | 143 | 0.0 | 0.0 | 0.00 | 0.00 | 0.00 | 77 | 1007.4 |
| 20260504020056 | 2 | 139 | 0.0 | 0.0 | 0.00 | 0.00 | 0.00 | 75 | 1007.3 |
| 20260504014604 | 2 | 174 | 0.0 | 0.0 | 0.00 | 0.00 | 0.00 | 74 | 1007.3 |
| 20260504013057 | 3 | 181 | 0.0 | 0.0 | 0.00 | 0.00 | 0.00 | 72 | 1007.2 |
| 20260504011552 | 3 | 189 | 0.0 | 0.0 | 0.00 | 0.00 | 0.00 | 70 | 1007.1 |
| 20260504010049 | 4 | 192 | 0.0 | 0.0 | 0.00 | 0.00 | 0.00 | 66 | 1007.0 |
| 20260504004548 | 5 | 213 | 0.0 | 4.8 | 0.00 | 0.03 | 0.00 | 61 | 1006.8 |
| 20260504003052 | 6 | 329 | 3.2 | 12.9 | 0.00 | 0.03 | 0.00 | 63 | 1006.5 |
| 20260504001546 | 6 | 46 | 3.2 | 17.7 | 0.00 | 0.03 | 0.00 | 61 | 1006.3 |
| 20260504000112 | 7 | 329 | 6.4 | 19.3 | 0.00 | 0.03 | 0.00 | 60 | 1006.2 |
| 20260503234552 | 7 | 356 | 9.7 | 20.9 | 0.00 | 0.03 | 0.00 | 57 | 1006.1 |
| 20260503233044 | 7 | 134 | 6.4 | 19.3 | 0.00 | 0.03 | 0.00 | 58 | 1005.9 |
| 20260503231543 | 7 | 323 | 11.3 | 22.5 | 0.00 | 0.03 | 0.00 | 56 | 1005.8 |
| 20260503230042 | 7 | 360 | 4.8 | 14.5 | 0.00 | 0.03 | 0.00 | 54 | 1005.6 |
| 20260503224542 | 7 | 287 | 4.8 | 16.1 | 0.00 | 0.03 | 0.00 | 57 | 1005.5 |
| 20260503223042 | 8 | 20 | 6.4 | 20.9 | 0.00 | 0.03 | 0.00 | 55 | 1005.4 |
| 20260503221549 | 8 | 354 | 9.7 | 19.3 | 0.00 | 0.03 | 0.00 | 51 | 1005.1 |
| 20260503220040 | 8 | 263 | 9.7 | 25.7 | 0.00 | 0.03 | 0.00 | 54 | 1005.0 |
| 20260503214543 | 8 | 285 | 9.7 | 30.6 | 0.00 | 0.03 | 0.00 | 49 | 1005.0 |
| 20260503213038 | 8 | 354 | 14.5 | 35.4 | 0.00 | 0.03 | 0.00 | 50 | 1004.9 |